When you browse on this site, cookies collect data to enhance your experience and personalize the content and advertising you see.
Visit our Privacy Policy to learn more. By continuing to use the site, you agree to this use of cookies and data.
  • In United Kingdom
  • List of Countries
  • For 7 days
  • Water Temperature
  • Satellite Maps
  • Weather Map
  • Weather Widgets
  • user-avatar
    Login

    Hourly Weather Maryanovo

    Today, 18 November, Sunday

    Time Temperature Precipitation Wind Pressure Humidity
    00:00 0°C° 0 mm 1 mps 762 mmHg 47%
    01:00 0°C° 0 mm 1 mps 762 mmHg 48%
    02:00 0°C° 0 mm 1 mps 761 mmHg 47%
    03:00 -2°C° 0 mm 2 mps 761 mmHg 49%
    04:00 -2°C° 0 mm 2 mps 760 mmHg 52%
    05:00 -2°C° 0 mm 2 mps 759 mmHg 54%
    06:00 -2°C° 0 mm 2 mps 758 mmHg 57%
    07:00 -1°C° 0 mm 2 mps 758 mmHg 59%
    08:00 -1°C° 0 mm 3 mps 757 mmHg 65%
    09:00 -1°C° 0.7 mm 3 mps 756 mmHg 74%
    10:00 -1°C° 0.7 mm 3 mps 756 mmHg 82%
    11:00 -1°C° 0.7 mm 3 mps 755 mmHg 91%
    12:00 0°C° 0.3 mm 3 mps 755 mmHg 91%
    13:00 0°C° 0.3 mm 3 mps 754 mmHg 92%
    14:00 +2°C° 0.3 mm 2 mps 754 mmHg 92%
    15:00 +2°C° 0.1 mm 2 mps 754 mmHg 93%
    16:00 +1°C° 0.1 mm 2 mps 754 mmHg 95%
    17:00 +1°C° 0.1 mm 2 mps 753 mmHg 96%
    18:00 +1°C° 0 mm 2 mps 753 mmHg 96%
    19:00 +1°C° 0 mm 2 mps 753 mmHg 96%
    20:00 +1°C° 0 mm 2 mps 753 mmHg 97%
    21:00 +1°C° 0 mm 2 mps 754 mmHg 97%
    22:00 +1°C° 0 mm 2 mps 754 mmHg 96%
    23:00 +1°C° 0 mm 2 mps 754 mmHg 96%

    Tomorrow, 19 November, Monday

    Time Temperature Precipitation Wind Pressure Humidity
    00:00 +1°C° 0 mm 2 mps 754 mmHg 96%
    01:00 +1°C° 0 mm 2 mps 754 mmHg 96%
    02:00 0°C° 0 mm 3 mps 754 mmHg 96%
    03:00 0°C° 0 mm 3 mps 754 mmHg 96%
    04:00 0°C° 0 mm 3 mps 754 mmHg 96%
    05:00 0°C° 0 mm 3 mps 754 mmHg 95%
    06:00 0°C° 0.1 mm 3 mps 754 mmHg 95%
    07:00 -1°C° 0.1 mm 4 mps 755 mmHg 94%
    08:00 -1°C° 0.1 mm 4 mps 755 mmHg 93%
    09:00 -1°C° 0 mm 4 mps 755 mmHg 92%
    10:00 -1°C° 0 mm 4 mps 755 mmHg 90%
    11:00 -1°C° 0 mm 5 mps 756 mmHg 89%
    12:00 -1°C° 0 mm 5 mps 756 mmHg 88%
    13:00 0°C° 0 mm 5 mps 756 mmHg 88%
    14:00 0°C° 0 mm 5 mps 756 mmHg 87%
    15:00 -1°C° 0 mm 4 mps 756 mmHg 88%
    16:00 -1°C° 0 mm 4 mps 756 mmHg 88%
    17:00 -1°C° 0 mm 4 mps 756 mmHg 89%
    18:00 -1°C° 0 mm 4 mps 756 mmHg 89%
    19:00 -2°C° 0 mm 4 mps 757 mmHg 89%
    20:00 -2°C° 0 mm 4 mps 757 mmHg 90%
    21:00 -2°C° 0 mm 4 mps 757 mmHg 89%
    22:00 -2°C° 0 mm 4 mps 757 mmHg 88%
    23:00 -2°C° 0 mm 4 mps 757 mmHg 87%

    Day after tomorrow, 20 November, Tuesday

    Time Temperature Precipitation Wind Pressure Humidity
    00:00 -2°C° 0 mm 4 mps 757 mmHg 87%
    01:00 -3°C° 0 mm 4 mps 757 mmHg 87%
    02:00 -3°C° 0 mm 4 mps 757 mmHg 87%
    03:00 -3°C° 0 mm 4 mps 757 mmHg 89%
    04:00 -4°C° 0 mm 4 mps 757 mmHg 90%
    05:00 -4°C° 0 mm 4 mps 757 mmHg 92%
    06:00 -4°C° 0 mm 4 mps 757 mmHg 91%
    07:00 -3°C° 0 mm 4 mps 757 mmHg 91%
    08:00 -4°C° 0 mm 5 mps 757 mmHg 90%
    09:00 -4°C° 0 mm 5 mps 757 mmHg 88%
    10:00 -4°C° 0 mm 5 mps 757 mmHg 86%
    11:00 -2°C° 0 mm 5 mps 757 mmHg 84%
    12:00 -2°C° 0 mm 5 mps 757 mmHg 83%
    13:00 -2°C° 0 mm 5 mps 757 mmHg 83%
    14:00 -1°C° 0 mm 4 mps 757 mmHg 82%
    15:00 -1°C° 0 mm 4 mps 756 mmHg 83%
    16:00 -2°C° 0 mm 4 mps 756 mmHg 84%
    17:00 -2°C° 0 mm 4 mps 756 mmHg 86%
    18:00 -2°C° 0 mm 5 mps 756 mmHg 87%
    19:00 -2°C° 0 mm 5 mps 756 mmHg 87%
    20:00 -4°C° 0 mm 5 mps 756 mmHg 88%
    21:00 -4°C° 0 mm 5 mps 756 mmHg 88%
    22:00 -4°C° 0 mm 5 mps 756 mmHg 87%
    23:00 -4°C° 0 mm 5 mps 756 mmHg 87%

    21 November, Wednesday

    Time Temperature Precipitation Wind Pressure Humidity
    00:00 -4°C° 0 mm 5 mps 756 mmHg 86%
    01:00 -4°C° 0 mm 5 mps 756 mmHg 85%
    02:00 -4°C° 0 mm 5 mps 756 mmHg 85%
    03:00 -4°C° 0 mm 5 mps 756 mmHg 84%
    04:00 -4°C° 0 mm 5 mps 756 mmHg 84%
    05:00 -4°C° 0 mm 5 mps 756 mmHg 83%
    06:00 -4°C° 0 mm 5 mps 756 mmHg 83%
    07:00 -4°C° 0 mm 4 mps 756 mmHg 83%
    08:00 -4°C° 0 mm 4 mps 756 mmHg 83%
    09:00 -4°C° 0 mm 5 mps 756 mmHg 81%
    10:00 -4°C° 0 mm 5 mps 757 mmHg 80%
    11:00 -4°C° 0 mm 5 mps 757 mmHg 78%
    12:00 -2°C° 0 mm 5 mps 757 mmHg 77%
    13:00 -2°C° 0 mm 4 mps 757 mmHg 77%
    14:00 -2°C° 0 mm 4 mps 757 mmHg 76%
    15:00 -2°C° 0 mm 4 mps 757 mmHg 79%
    16:00 -3°C° 0 mm 4 mps 757 mmHg 81%
    17:00 -4°C° 0 mm 3 mps 757 mmHg 84%
    18:00 -4°C° 0 mm 3 mps 757 mmHg 84%
    19:00 -4°C° 0 mm 3 mps 757 mmHg 85%
    20:00 -4°C° 0 mm 3 mps 758 mmHg 86%
    21:00 -5°C° 0 mm 3 mps 758 mmHg 86%
    22:00 -5°C° 0 mm 3 mps 758 mmHg 87%
    23:00 -5°C° 0 mm 3 mps 758 mmHg 87%

    22 November, Thursday

    Time Temperature Precipitation Wind Pressure Humidity
    00:00 -5°C° 0 mm 3 mps 758 mmHg 87%
    01:00 -4°C° 0 mm 2 mps 758 mmHg 87%
    02:00 -4°C° 0 mm 2 mps 758 mmHg 87%
    03:00 -4°C° 0 mm 2 mps 758 mmHg 86%
    04:00 -4°C° 0 mm 2 mps 758 mmHg 86%
    05:00 -4°C° 0 mm 2 mps 758 mmHg 86%
    06:00 -4°C° 0 mm 2 mps 758 mmHg 87%
    07:00 -4°C° 0 mm 2 mps 758 mmHg 87%
    08:00 -4°C° 0 mm 2 mps 759 mmHg 88%
    09:00 -4°C° 0 mm 2 mps 759 mmHg 84%
    10:00 -3°C° 0 mm 2 mps 759 mmHg 81%
    11:00 -2°C° 0 mm 2 mps 759 mmHg 77%
    12:00 -2°C° 0 mm 2 mps 759 mmHg 76%
    13:00 -1°C° 0 mm 2 mps 759 mmHg 75%
    14:00 -1°C° 0 mm 2 mps 759 mmHg 74%
    15:00 -2°C° 0 mm 2 mps 759 mmHg 78%
    16:00 -2°C° 0 mm 2 mps 759 mmHg 83%
    17:00 -3°C° 0 mm 2 mps 759 mmHg 87%
    18:00 -3°C° 0 mm 2 mps 760 mmHg 88%
    19:00 -4°C° 0 mm 2 mps 760 mmHg 89%
    20:00 -4°C° 0 mm 2 mps 760 mmHg 90%
    21:00 -4°C° 0 mm 2 mps 760 mmHg 90%
    22:00 -2°C° 0 mm 1 mps 760 mmHg 90%
    23:00 -2°C° 0 mm 1 mps 761 mmHg 90%

    23 November, Friday

    Time Temperature Precipitation Wind Pressure Humidity
    00:00 -2°C° 0 mm 1 mps 761 mmHg 90%
    01:00 -2°C° 0 mm 1 mps 761 mmHg 90%
    02:00 -2°C° 0 mm 1 mps 761 mmHg 90%
    03:00 -2°C° 0 mm 1 mps 761 mmHg 89%
    04:00 -3°C° 0 mm 1 mps 761 mmHg 89%
    05:00 -3°C° 0 mm 1 mps 761 mmHg 89%
    06:00 -3°C° 0 mm 1 mps 761 mmHg 89%
    07:00 -3°C° 0 mm 1 mps 761 mmHg 89%
    08:00 -3°C° 0 mm 1 mps 761 mmHg 89%
    09:00 -2°C° 0 mm 1 mps 761 mmHg 85%
    10:00 -3°C° 0 mm 2 mps 761 mmHg 80%
    11:00 -2°C° 0 mm 2 mps 761 mmHg 76%
    12:00 -2°C° 0 mm 2 mps 761 mmHg 74%
    13:00 -2°C° 0 mm 2 mps 761 mmHg 73%
    14:00 -1°C° 0 mm 2 mps 760 mmHg 71%
    15:00 -2°C° 0 mm 2 mps 760 mmHg 75%
    16:00 -3°C° 0 mm 2 mps 760 mmHg 80%
    17:00 -3°C° 0 mm 2 mps 759 mmHg 84%
    18:00 -4°C° 0 mm 2 mps 759 mmHg 84%
    19:00 -4°C° 0 mm 2 mps 759 mmHg 84%
    20:00 -4°C° 0 mm 2 mps 758 mmHg 84%
    21:00 -4°C° 0 mm 2 mps 758 mmHg 83%
    22:00 -4°C° 0 mm 2 mps 757 mmHg 82%
    23:00 -4°C° 0 mm 2 mps 757 mmHg 82%
    Show more